Weather Roundup
Issued by NWS Corpus Christi, TX

Home | Current Version | Previous Version | Text Only | Print | Product List | Glossary On
Versions: 1 2 3 4 5 6 7 8 9 10 11 12 13 14 15 16 17 18 19 20 21 22 23 24 25 26 27 28 29 30 31 32 33 34 35 36 37 38 39 40 41 42 43 44 45 46 47 48 49 50
000
ASUS44 KCRP 240610
HRRCRP

SOUTH TEXAS REGIONAL WEATHER ROUNDUP
NATIONAL WEATHER SERVICE CORPUS CHRISTI TX
100 AM CDT THU APR 24 2014


TXZ229>244-240700-
...CORPUS CHRISTI AREA OBSERVATIONS...

CITY           SKY/WX    TMP DP  RH WIND       PRES   REMARKS
CORPUS CHRISTI CLOUDY    73  68  84 S9        29.84R
NAS CORPUS CHR MOCLDY    72  70  93 SE14G25   29.80S
ROCKPORT       CLOUDY    72  69  90 SE10      29.84R
KINGSVILLE NAS MOCLDY    73  68  84 SE8       29.81R
ALICE          MOCLDY    71  66  84 SE14      29.81F
FALFURRIAS     FAIR      71  66  85 S13       29.79S
$$

...VICTORIA AREA OBSERVATIONS...

CITY           SKY/WX    TMP DP  RH WIND       PRES   REMARKS
VICTORIA       FAIR      69  66  90 S8        29.84F
BEEVILLE       FAIR      69  67  94 SE8       29.81F
PLEASANTON     FAIR      70  62  77 SE15G25   29.77S
SAN ANTONIO    MOCLDY    70  61  73 S14G22    29.80S
$$

...LAREDO AREA OBSERVATIONS...

CITY           SKY/WX    TMP DP  RH WIND       PRES   REMARKS
LAREDO         FAIR      74  60  61 SE14      29.78F
COTULLA        FAIR      71  63  75 SE20G29   29.74F
DEL RIO        FAIR      71  62  73 SE5       29.74R
MCALLEN        FAIR      72  68  87 SE15      29.81F
HEBBRONVILLE   FAIR      69  64  85 E8        29.81R
$$

...OTHER TEXAS OBSERVATIONS...

CITY           SKY/WX    TMP DP  RH WIND       PRES   REMARKS
BROWNSVILLE    CLOUDY    73  70  90 S12       29.84S
HOUSTON        FAIR      69  65  86 S10       29.86S
COL. STATION   CLOUDY    70  64  81 S15       29.84S
AUSTIN         MOCLDY    69  64  84 S13       29.80F
WACO           FAIR      71  62  73 S21G30    29.78S
FORT WORTH     MOCLDY    74  61  63 S16       29.76R
WICHITA FALLS  FAIR      70  61  73 SE24G30   29.67R
LUBBOCK        FAIR      72  20  14 W21       29.72R
EL PASO        PTCLDY    73  14  10 NW18G30   29.89R
$$

...MARINE OBSERVATIONS...

STATION/POSITION TIME  SKY/WX   TEMP    WIND        PRES    VSBY  WAVE   SWELL
                                AIR SEA DIR/SP/G                  HT/PER HT/PER
                 (UTC)          (F)     (DEG/KT/KT) (MB)    (MI)  (FT/S) (FT/S)
PORT ARANSAS     0600            71 75  130/ 15/ 17 1009.4F
BUOY 90 E PORT A NOT AVBL
BUOY 45 SE BAFFI 0600            72 71  150/ 16/ 19 1009.5F         3/ 5
BUOY 200 E PT IS NOT AVBL
BUOY 15 E GALVES 0600            71 71  150/ 14/ 17 1011.1F         1/ 4
$$


USA.gov is the U.S. government's official web portal to all federal, state and local government web resources and services.